N172LF KMDW-KRFD

Flight info

Callsign N172LF
Flight time 0h 27m
Altitude VFR
Route VFR SW
Aircraft BE36/L-VGD/C

Departure

Time 2026-05-09 01:57
Airport Chicago Midway International Airport (KMDW)

Arrival

Time 2026-05-09 02:25
Airport Chicago Rockford International Airport (KRFD)
Time Latitude Longitude Altitude Speed Heading
2026-05-09 01:57 41.54367 -87.97591 1803 ft 131 kts 218°
2026-05-09 01:57 41.53636 -87.98311 1810 ft 129 kts 219°
2026-05-09 01:58 41.52924 -87.99010 1875 ft 124 kts 219°
2026-05-09 01:58 41.52246 -87.99676 1984 ft 119 kts 219°
2026-05-09 01:58 41.51575 -88.00340 1990 ft 121 kts 220°
2026-05-09 01:58 41.50892 -88.01012 1991 ft 122 kts 219°
2026-05-09 01:59 41.50205 -88.01689 1991 ft 124 kts 219°
2026-05-09 01:59 41.49506 -88.02376 1992 ft 126 kts 219°
2026-05-09 01:59 41.48798 -88.03072 1994 ft 127 kts 218°
2026-05-09 01:59 41.48135 -88.03836 1989 ft 126 kts 239°
2026-05-09 02:00 41.48127 -88.04982 1995 ft 131 kts 286°
2026-05-09 02:00 41.48705 -88.05952 1998 ft 137 kts 309°
2026-05-09 02:00 41.49383 -88.06852 2001 ft 138 kts 306°
2026-05-09 02:00 41.50065 -88.07819 2012 ft 151 kts 306°
2026-05-09 02:01 41.50818 -88.08899 2007 ft 166 kts 308°
2026-05-09 02:01 41.51624 -88.10057 2009 ft 173 kts 307°
2026-05-09 02:01 41.52453 -88.11251 2008 ft 177 kts 308°
2026-05-09 02:01 41.53293 -88.12459 2023 ft 177 kts 308°
2026-05-09 02:02 41.54121 -88.13649 2142 ft 173 kts 308°
2026-05-09 02:02 41.54931 -88.14814 2275 ft 170 kts 310°
2026-05-09 02:02 41.55650 -88.16046 2385 ft 168 kts 293°
2026-05-09 02:02 41.56109 -88.17488 2438 ft 170 kts 289°
2026-05-09 02:03 41.56475 -88.18963 2582 ft 166 kts 283°
2026-05-09 02:03 41.57070 -88.20265 2708 ft 168 kts 313°
2026-05-09 02:03 41.57822 -88.21391 3017 ft 157 kts 306°
2026-05-09 02:03 41.58468 -88.22528 3337 ft 151 kts 304°
2026-05-09 02:04 41.59018 -88.23641 3758 ft 142 kts 298°
2026-05-09 02:04 41.59481 -88.24807 4060 ft 142 kts 296°
2026-05-09 02:04 41.60099 -88.25883 4136 ft 158 kts 327°
2026-05-09 02:04 41.61190 -88.26306 4272 ft 164 kts 333°
2026-05-09 02:05 41.62024 -88.27344 4295 ft 168 kts 302°
2026-05-09 02:05 41.62594 -88.28658 4497 ft 164 kts 297°
2026-05-09 02:05 41.63145 -88.30012 4682 ft 163 kts 297°
2026-05-09 02:05 41.63677 -88.31330 4855 ft 163 kts 297°
2026-05-09 02:06 41.64209 -88.32650 5084 ft 160 kts 296°
2026-05-09 02:06 41.64729 -88.33950 5323 ft 157 kts 296°
2026-05-09 02:06 41.65241 -88.35235 5573 ft 156 kts 296°
2026-05-09 02:07 41.66248 -88.37787 6081 ft 154 kts 296°
2026-05-09 02:07 41.66743 -88.39061 6328 ft 154 kts 296°
2026-05-09 02:07 41.67233 -88.40335 6570 ft 154 kts 296°
2026-05-09 02:07 41.67719 -88.41607 6815 ft 153 kts 296°
2026-05-09 02:08 41.68201 -88.42874 7062 ft 153 kts 296°
2026-05-09 02:08 41.68680 -88.44140 7311 ft 152 kts 297°
2026-05-09 02:08 41.69157 -88.45402 7561 ft 152 kts 297°
2026-05-09 02:08 41.69621 -88.46638 7909 ft 145 kts 297°
2026-05-09 02:09 41.70061 -88.47828 8281 ft 140 kts 297°
2026-05-09 02:09 41.70485 -88.48985 8661 ft 137 kts 297°
2026-05-09 02:09 41.70897 -88.50123 9047 ft 135 kts 298°
2026-05-09 02:09 41.71301 -88.51245 9451 ft 133 kts 298°
2026-05-09 02:10 41.71696 -88.52355 9821 ft 132 kts 298°
2026-05-09 02:10 41.72090 -88.53475 10179 ft 134 kts 298°
2026-05-09 02:10 41.72494 -88.54626 10464 ft 143 kts 297°
2026-05-09 02:10 41.72951 -88.55912 10480 ft 162 kts 298°
2026-05-09 02:11 41.73462 -88.57322 10479 ft 174 kts 298°
2026-05-09 02:11 41.74002 -88.58806 10477 ft 180 kts 298°
2026-05-09 02:11 41.74557 -88.60328 10479 ft 184 kts 298°
2026-05-09 02:11 41.75117 -88.61877 10479 ft 186 kts 297°
2026-05-09 02:12 41.75804 -88.63332 10476 ft 186 kts 311°
2026-05-09 02:12 41.76718 -88.64562 10480 ft 186 kts 316°
2026-05-09 02:12 41.77660 -88.65728 10481 ft 187 kts 316°
2026-05-09 02:12 41.78697 -88.66825 10481 ft 188 kts 321°
2026-05-09 02:13 41.79750 -88.67869 10488 ft 188 kts 321°
2026-05-09 02:13 41.80789 -88.68940 10488 ft 188 kts 320°
2026-05-09 02:13 41.81807 -88.70005 10488 ft 188 kts 320°
2026-05-09 02:13 41.82840 -88.71087 10489 ft 188 kts 320°
2026-05-09 02:14 41.83872 -88.72165 10486 ft 188 kts 320°
2026-05-09 02:14 41.84903 -88.73245 10485 ft 188 kts 320°
2026-05-09 02:14 41.85935 -88.74323 10485 ft 188 kts 320°
2026-05-09 02:14 41.86968 -88.75404 10487 ft 188 kts 320°
2026-05-09 02:15 41.88001 -88.76487 10490 ft 188 kts 320°
2026-05-09 02:15 41.89035 -88.77569 10488 ft 188 kts 320°
2026-05-09 02:15 41.90066 -88.78649 10489 ft 188 kts 320°
2026-05-09 02:15 41.91096 -88.79727 10506 ft 187 kts 320°
2026-05-09 02:16 41.92125 -88.80805 10510 ft 188 kts 320°
2026-05-09 02:16 41.93155 -88.81887 10483 ft 189 kts 320°
2026-05-09 02:16 41.94211 -88.82998 10312 ft 196 kts 320°
2026-05-09 02:16 41.95292 -88.84136 10151 ft 199 kts 320°
2026-05-09 02:17 41.96386 -88.85287 9970 ft 201 kts 320°
2026-05-09 02:17 41.97491 -88.86449 9808 ft 202 kts 320°
2026-05-09 02:17 41.98602 -88.87616 9639 ft 203 kts 319°
2026-05-09 02:17 41.99697 -88.88814 9459 ft 203 kts 316°
2026-05-09 02:18 42.00816 -88.89983 9270 ft 204 kts 320°
2026-05-09 02:18 42.01952 -88.91136 9085 ft 205 kts 320°
2026-05-09 02:18 42.03051 -88.92285 8889 ft 192 kts 319°
2026-05-09 02:18 42.04060 -88.93344 8704 ft 178 kts 318°
2026-05-09 02:19 42.05007 -88.94347 8510 ft 170 kts 318°
2026-05-09 02:19 42.05921 -88.95313 8269 ft 164 kts 318°
2026-05-09 02:19 42.06824 -88.96203 7915 ft 160 kts 320°
2026-05-09 02:19 42.07734 -88.97052 7551 ft 157 kts 319°
2026-05-09 02:20 42.08604 -88.97897 7263 ft 152 kts 320°
2026-05-09 02:20 42.09490 -88.98673 6955 ft 151 kts 322°
2026-05-09 02:20 42.10379 -88.99406 6628 ft 152 kts 323°
2026-05-09 02:20 42.11285 -89.00146 6239 ft 155 kts 323°
2026-05-09 02:21 42.12229 -89.00855 5815 ft 157 kts 327°
2026-05-09 02:21 42.13221 -89.01428 5403 ft 158 kts 332°
2026-05-09 02:21 42.14236 -89.01994 4951 ft 159 kts 328°
2026-05-09 02:21 42.15197 -89.02716 4532 ft 158 kts 325°
2026-05-09 02:22 42.16162 -89.03457 4012 ft 161 kts 321°
2026-05-09 02:22 42.17055 -89.04389 3485 ft 164 kts 313°
2026-05-09 02:22 42.17912 -89.05405 2998 ft 165 kts 315°
2026-05-09 02:22 42.18902 -89.06165 2537 ft 165 kts 339°
2026-05-09 02:23 42.20055 -89.06395 2060 ft 167 kts 349°
2026-05-09 02:23 42.21159 -89.06511 1892 ft 148 kts 350°
2026-05-09 02:23 42.21919 -89.07020 1778 ft 107 kts 295°
2026-05-09 02:23 42.22125 -89.07934 1468 ft 103 kts 266°
2026-05-09 02:24 42.21767 -89.08676 1173 ft 99 kts 198°
2026-05-09 02:24 42.21111 -89.08792 944 ft 89 kts 183°
2026-05-09 02:24 42.20526 -89.08861 752 ft 78 kts 184°
2026-05-09 02:24 42.20087 -89.08922 727 ft 50 kts 184°
2026-05-09 02:25 42.19804 -89.08956 727 ft 35 kts 187°
2026-05-09 02:25 42.19650 -89.08978 727 ft 19 kts 184°
2026-05-09 02:25 42.19524 -89.08995 725 ft 18 kts 185°
2026-05-09 02:25 42.19342 -89.09016 721 ft 37 kts 186°
2026-05-09 02:26 42.19087 -89.09051 719 ft 26 kts 185°
2026-05-09 02:26 42.18973 -89.09101 719 ft 15 kts 239°
2026-05-09 02:26 42.18971 -89.09206 720 ft 0 kts 276°
2026-05-09 02:36 42.18973 -89.09223 720 ft 8 kts 288°
2026-05-09 02:36 42.19066 -89.09273 721 ft 23 kts
2026-05-09 02:36 42.19312 -89.09242 722 ft 59 kts
2026-05-09 02:37 42.19645 -89.09211 725 ft 19 kts 21°
2026-05-09 02:37 42.19648 -89.09107 725 ft 0 kts 93°
2026-05-09 02:38 42.19646 -89.09072 725 ft 13 kts 96°
2026-05-09 02:38 42.19530 -89.08993 725 ft 33 kts 185°
2026-05-09 02:38 42.19025 -89.09049 750 ft 104 kts 185°
2026-05-09 02:39 42.18262 -89.09175 1148 ft 118 kts 191°
2026-05-09 02:39 42.17394 -89.09425 1345 ft 142 kts 194°
2026-05-09 02:39 42.16392 -89.09146 1492 ft 161 kts 144°
2026-05-09 02:39 42.15918 -89.07753 1744 ft 176 kts 95°
2026-05-09 02:40 42.15949 -89.06082 2000 ft 180 kts 97°
2026-05-09 02:40 42.15653 -89.04470 2276 ft 177 kts 115°
2026-05-09 02:40 42.15208 -89.02918 2547 ft 179 kts 116°
2026-05-09 02:40 42.14758 -89.01347 2811 ft 180 kts 116°
2026-05-09 02:41 42.14313 -88.99762 3095 ft 181 kts 115°
2026-05-09 02:41 42.13866 -88.98167 3361 ft 183 kts 115°
2026-05-09 02:41 42.13417 -88.96563 3631 ft 184 kts 115°
2026-05-09 02:41 42.12965 -88.94952 3906 ft 184 kts 115°
2026-05-09 02:42 42.12667 -88.93887 4090 ft 183 kts 115°
2026-05-09 02:42 42.12228 -88.92312 4505 ft 176 kts 115°
2026-05-09 02:42 42.11801 -88.90791 4920 ft 172 kts 114°
2026-05-09 02:42 42.11378 -88.89289 5336 ft 171 kts 114°
2026-05-09 02:43 42.10958 -88.87792 5767 ft 171 kts 114°
2026-05-09 02:43 42.10536 -88.86295 6198 ft 171 kts 113°
2026-05-09 02:43 42.10112 -88.84790 6601 ft 173 kts 112°
2026-05-09 02:43 42.09685 -88.83271 7016 ft 174 kts 112°
2026-05-09 02:44 42.09254 -88.81743 7437 ft 175 kts 112°
2026-05-09 02:44 42.08819 -88.80203 7869 ft 177 kts 111°
2026-05-09 02:44 42.08383 -88.78654 8303 ft 177 kts 111°
2026-05-09 02:44 42.07943 -88.77097 8743 ft 179 kts 111°
2026-05-09 02:45 42.07500 -88.75529 9194 ft 180 kts 110°
2026-05-09 02:45 42.07055 -88.73954 9641 ft 181 kts 110°
2026-05-09 02:45 42.06607 -88.72370 10053 ft 182 kts 110°
2026-05-09 02:45 42.06156 -88.70773 10466 ft 183 kts 109°
2026-05-09 02:46 42.05701 -88.69166 10882 ft 184 kts 109°
2026-05-09 02:46 42.05242 -88.67547 11305 ft 186 kts 109°
2026-05-09 02:46 42.04780 -88.65915 11735 ft 187 kts 108°
2026-05-09 02:46 42.04313 -88.64271 12168 ft 189 kts 108°
2026-05-09 02:47 42.03840 -88.62604 12515 ft 198 kts 108°
2026-05-09 02:47 42.03320 -88.60777 12534 ft 218 kts 108°
2026-05-09 02:47 42.02759 -88.58811 12533 ft 231 kts 108°
2026-05-09 02:47 42.02174 -88.56755 12528 ft 239 kts 108°
2026-05-09 02:48 42.01577 -88.54652 12530 ft 243 kts 108°
2026-05-09 02:48 42.00970 -88.52521 12523 ft 245 kts 109°
2026-05-09 02:48 42.00359 -88.50376 12523 ft 246 kts 109°
2026-05-09 02:48 41.99751 -88.48248 12526 ft 247 kts 109°
2026-05-09 02:49 41.99124 -88.46061 12504 ft 248 kts 109°
2026-05-09 02:49 41.98505 -88.43898 12514 ft 248 kts 109°
2026-05-09 02:49 41.98103 -88.42487 12514 ft 248 kts 109°